FW7499 Weather Reports


time (UTC)temp
C
wind
direction
speed
KPH
gust
KPH
rain 1hr
cm
rain 24hr
cm
rain mn
cm
humidity
%
barometer
mb
20260508065504 11 342 0.0 0.0 0.00 0.00 0.00 58 1009.9
20260508065003 11 342 0.0 0.0 0.00 0.00 0.00 60 1010.0
20260508064503 11 342 0.0 0.0 0.00 0.00 0.00 62 1009.9
20260508064003 12 342 0.0 0.0 0.00 0.00 0.00 60 1009.9
20260508063504 12 342 0.0 0.0 0.00 0.00 0.00 51 1010.0
20260508063010 12 342 0.0 0.0 0.00 0.00 0.00 50 1010.0
20260508062506 12 342 0.0 0.0 0.00 0.00 0.00 53 1010.1
20260508062008 12 342 0.0 0.0 0.00 0.00 0.00 50 1010.1
20260508061508 12 342 0.0 0.0 0.00 0.00 0.00 53 1010.1
20260508061003 12 342 0.0 0.0 0.00 0.00 0.00 51 1010.0
20260508060510 12 342 0.0 0.0 0.00 0.00 0.00 52 1009.8
20260508060007 12 342 0.0 0.0 0.00 0.00 0.00 56 1009.8
20260508055502 12 342 0.0 0.0 0.00 0.00 0.00 57 1009.7
20260508055007 12 342 0.0 0.0 0.00 0.00 0.00 53 1009.8
20260508054510 12 342 0.0 0.0 0.00 0.00 0.00 57 1009.9
20260508054004 12 342 0.0 0.0 0.00 0.00 0.00 55 1009.8
20260508053503 12 342 0.0 0.0 0.00 0.00 0.00 50 1009.8
20260508053006 11 342 0.0 0.0 0.00 0.00 0.00 54 1009.8
20260508052504 11 342 0.0 0.0 0.00 0.00 0.00 58 1009.7
20260508052008 11 342 0.0 0.0 0.00 0.00 0.00 59 1009.8
20260508051511 11 342 0.0 0.0 0.00 0.00 0.00 57 1009.8
20260508051007 11 342 0.0 0.0 0.00 0.00 0.00 58 1009.8
20260508050503 11 342 0.0 0.0 0.00 0.00 0.00 55 1009.9
20260508050015 11 342 0.0 0.0 0.00 0.00 0.00 56 1009.9
20260508045508 12 342 0.0 0.0 0.00 0.00 0.00 52 1009.9
20260508045004 12 342 0.0 0.0 0.00 0.00 0.00 50 1010.0
20260508044513 12 342 0.0 0.0 0.00 0.00 0.00 52 1010.1
20260508044007 12 342 0.0 0.0 0.00 0.00 0.00 52 1010.1
20260508043503 12 342 0.0 0.0 0.00 0.00 0.00 52 1010.2
20260508043017 11 342 0.0 0.0 0.00 0.00 0.00 54 1010.1
20260508042504 11 342 0.0 0.0 0.00 0.00 0.00 50 1010.1
20260508042007 11 342 0.0 0.0 0.00 0.00 0.00 49 1010.1
20260508041516 11 342 0.0 0.0 0.00 0.00 0.00 50 1010.1
20260508041003 11 342 0.0 0.0 0.00 0.00 0.00 48 1010.1
20260508040507 11 342 0.0 0.0 0.00 0.00 0.00 51 1010.2
20260508040019 12 342 0.0 0.0 0.00 0.00 0.00 51 1010.2
20260508035505 12 342 0.0 0.0 0.00 0.00 0.00 50 1010.2
20260508035006 12 342 0.0 0.0 0.00 0.00 0.00 46 1010.0
20260508034511 12 342 0.0 0.0 0.00 0.00 0.00 45 1009.9
20260508034007 12 342 0.0 0.0 0.00 0.00 0.00 47 1009.9
20260508033506 12 342 0.0 0.0 0.00 0.00 0.00 46 1009.9
20260508033010 13 342 0.0 0.0 0.00 0.00 0.00 44 1010.0
20260508032508 13 342 0.0 0.0 0.00 0.00 0.00 43 1010.1
20260508032004 13 342 0.0 0.0 0.00 0.00 0.00 45 1010.1
20260508031515 13 342 0.0 0.0 0.00 0.00 0.00 44 1010.1
20260508031003 13 342 0.0 0.0 0.00 0.00 0.00 43 1010.1
20260508030503 13 342 0.0 0.0 0.00 0.00 0.00 43 1010.1
20260508030013 13 342 0.0 0.0 0.00 0.00 0.00 44 1010.0
20260508025510 13 342 0.0 0.0 0.00 0.00 0.00 41 1009.9
20260508025009 13 342 0.0 0.0 0.00 0.00 0.00 41 1009.9
20260508024516 14 342 0.0 0.0 0.00 0.00 0.00 40 1009.9
20260508024007 14 342 0.0 0.0 0.00 0.00 0.00 39 1009.9
20260508023507 14 342 0.0 0.0 0.00 0.00 0.00 38 1009.9
20260508023021 15 342 0.0 0.0 0.00 0.00 0.00 39 1009.9
20260508022505 14 342 0.0 0.0 0.00 0.00 0.00 39 1009.9
20260508022006 14 342 0.0 0.0 0.00 0.00 0.00 41 1009.8
20260508021520 15 342 0.0 0.0 0.00 0.00 0.00 42 1009.7
20260508021009 15 342 0.0 0.0 0.00 0.00 0.00 40 1009.6
20260508020506 15 342 0.0 0.0 0.00 0.00 0.00 42 1009.6
20260508020022 15 342 0.0 0.0 0.00 0.00 0.00 39 1009.4
20260508015506 15 342 0.0 0.0 0.00 0.00 0.00 42 1009.4
20260508015006 15 342 0.0 0.0 0.00 0.00 0.00 40 1009.4
20260508014515 15 342 0.0 0.0 0.00 0.00 0.00 38 1009.4
20260508014009 16 342 0.0 0.0 0.00 0.00 0.00 37 1009.4
20260508013511 16 342 0.0 0.0 0.00 0.00 0.00 37 1009.4
20260508013013 17 342 0.0 1.6 0.00 0.00 0.00 35 1009.4
20260508012508 17 342 0.0 1.6 0.00 0.00 0.00 33 1009.2
20260508012010 17 342 0.0 8.0 0.00 0.00 0.00 33 1009.1
20260508011514 18 342 1.6 8.0 0.00 0.00 0.00 30 1009.0
20260508011006 18 342 3.2 8.0 0.00 0.00 0.00 30 1008.9
20260508010507 18 329 1.6 4.8 0.00 0.00 0.00 31 1008.9
20260508010032 18 331 0.0 4.8 0.00 0.00 0.00 32 1008.8
20260508005507 18 352 0.0 6.4 0.00 0.00 0.00 32 1008.8
20260508005006 18 355 1.6 8.0 0.00 0.00 0.00 30 1008.8
20260508004524 18 339 0.0 8.0 0.00 0.00 0.00 31 1008.7
20260508004008 19 323 1.6 4.8 0.00 0.00 0.00 32 1008.7
20260508003506 19 326 1.6 12.9 0.00 0.00 0.00 29 1008.7
20260508003021 19 304 3.2 14.5 0.00 0.00 0.00 28 1008.6
20260508002509 19 339 6.4 14.5 0.00 0.00 0.00 29 1008.6
20260508002011 20 306 4.8 9.7 0.00 0.00 0.00 29 1008.5
20260508001521 20 306 4.8 9.7 0.00 0.00 0.00 30 1008.6
20260508001007 20 342 3.2 9.7 0.00 0.00 0.00 30 1008.5
20260508000508 20 335 3.2 8.0 0.00 0.00 0.00 31 1008.5
20260508000017 20 355 3.2 14.5 0.00 0.00 0.00 28 1008.4
20260507235515 20 304 1.6 14.5 0.00 0.00 0.00 29 1008.4
20260507235006 20 318 4.8 16.1 0.00 0.00 0.00 29 1008.5
20260507234515 20 346 4.8 16.1 0.00 0.00 0.00 28 1008.5
20260507234008 21 305 3.2 14.5 0.00 0.00 0.00 29 1008.4
20260507233508 21 261 6.4 14.5 0.00 0.00 0.00 27 1008.5
20260507233027 21 5 4.8 14.5 0.00 0.00 0.00 26 1008.4
20260507232506 21 314 6.4 12.9 0.00 0.00 0.00 27 1008.4
20260507232007 21 342 3.2 14.5 0.00 0.00 0.00 24 1008.4
20260507231520 21 325 1.6 14.5 0.00 0.00 0.00 28 1008.3
20260507231009 22 312 1.6 14.5 0.00 0.00 0.00 27 1008.4
20260507230507 22 308 4.8 12.9 0.00 0.00 0.00 27 1008.3
20260507230023 22 315 4.8 12.9 0.00 0.00 0.00 28 1008.3
20260507225510 22 301 3.2 12.9 0.00 0.00 0.00 26 1008.3
20260507225007 22 326 1.6 14.5 0.00 0.00 0.00 29 1008.2
20260507224527 22 310 4.8 14.5 0.00 0.00 0.00 30 1008.3
20260507224007 22 314 3.2 12.9 0.00 0.00 0.00 29 1008.3
20260507223510 22 323 0.0 12.9 0.00 0.00 0.00 28 1008.3
20260507223027 22 327 4.8 14.5 0.00 0.00 0.00 28 1008.5
20260507222509 22 294 4.8 14.5 0.00 0.00 0.00 29 1008.5
20260507222007 22 311 6.4 14.5 0.00 0.00 0.00 27 1008.5
20260507221503 22 319 6.4 14.5 0.00 0.00 0.00 29 1008.5
20260507221002 22 331 4.8 12.9 0.00 0.00 0.00 27 1008.5
20260507220502 22 275 1.6 17.7 0.00 0.00 0.00 31 1008.6
20260507220018 22 317 4.8 17.7 0.00 0.00 0.00 29 1008.4
20260507215503 22 319 9.7 17.7 0.00 0.00 0.00 28 1008.5
20260507215003 22 309 4.8 11.3 0.00 0.00 0.00 28 1008.6
20260507214510 22 360 3.2 14.5 0.00 0.00 0.00 31 1008.5
20260507214003 22 319 3.2 14.5 0.00 0.00 0.00 30 1008.6
20260507213503 22 221 1.6 16.1 0.00 0.00 0.00 27 1008.7
20260507213009 22 339 6.4 16.1 0.00 0.00 0.00 29 1008.7
20260507212505 22 340 3.2 14.5 0.00 0.00 0.00 30 1008.7
20260507212003 22 217 4.8 14.5 0.00 0.00 0.00 28 1008.7
20260507211512 22 346 4.8 22.5 0.00 0.00 0.00 27 1008.6
20260507211005 22 315 9.7 22.5 0.00 0.00 0.00 28 1008.8
20260507210514 22 321 4.8 14.5 0.00 0.00 0.00 28 1008.8
20260507210003 22 346 4.8 17.7 0.00 0.00 0.00 30 1008.7
20260507205505 22 314 4.8 17.7 0.00 0.00 0.00 28 1008.8
20260507205007 22 340 9.7 16.1 0.00 0.00 0.00 28 1008.9
20260507204508 22 316 9.7 16.1 0.00 0.00 0.00 32 1008.9
20260507204003 22 11 4.8 19.3 0.00 0.00 0.00 30 1008.9
20260507203503 22 341 6.4 19.3 0.00 0.00 0.00 30 1009.1
20260507203007 22 340 3.2 16.1 0.00 0.00 0.00 32 1009.0
20260507202504 22 296 4.8 17.7 0.00 0.00 0.00 28 1009.1
20260507202004 22 302 6.4 17.7 0.00 0.00 0.00 28 1009.1
20260507201505 22 351 1.6 11.3 0.00 0.00 0.00 29 1009.1
20260507201004 22 296 1.6 12.9 0.00 0.00 0.00 28 1009.2
20260507200504 22 263 1.6 20.9 0.00 0.00 0.00 31 1009.1
20260507200014 22 338 4.8 20.9 0.00 0.00 0.00 32 1009.2
20260507195507 22 302 3.2 14.5 0.00 0.00 0.00 31 1009.0
20260507195003 22 311 6.4 14.5 0.00 0.00 0.00 32 1009.0
20260507194510 22 336 4.8 14.5 0.00 0.00 0.00 34 1009.0
20260507194007 22 346 3.2 16.1 0.00 0.00 0.00 29 1009.0
20260507193509 22 355 0.0 17.7 0.00 0.00 0.00 37 1009.0
20260507193008 22 338 3.2 17.7 0.00 0.00 0.00 36 1009.0
20260507192503 22 321 3.2 17.7 0.00 0.00 0.00 36 1009.0
20260507192003 22 319 1.6 17.7 0.00 0.00 0.00 37 1009.0
20260507191509 22 240 4.8 16.1 0.00 0.00 0.00 35 1009.0
20260507191003 22 322 6.4 16.1 0.00 0.00 0.00 35 1009.0
20260507190508 21 238 3.2 8.0 0.00 0.00 0.00 37 1009.1
20260507190014 21 309 3.2 14.5 0.00 0.00 0.00 34 1009.0
20260507185503 21 69 3.2 14.5 0.00 0.00 0.00 35 1009.1
20260507185006 21 307 4.8 16.1 0.00 0.00 0.00 37 1009.2
20260507184511 21 34 4.8 19.3 0.00 0.00 0.00 38 1009.2
20260507184007 21 298 4.8 19.3 0.00 0.00 0.00 36 1009.2
20260507183502 21 323 4.8 19.3 0.00 0.00 0.00 35 1009.3
20260507183008 21 202 3.2 19.3 0.00 0.00 0.00 34 1009.4
20260507182508 21 301 4.8 12.9 0.00 0.00 0.00 34 1009.4
20260507182011 21 302 3.2 12.9 0.00 0.00 0.00 34 1009.5
20260507181515 21 257 3.2 17.7 0.00 0.00 0.00 41 1009.7
20260507181006 21 292 6.4 17.7 0.00 0.00 0.00 38 1009.6
20260507180506 21 317 6.4 17.7 0.00 0.00 0.00 39 1009.7
20260507180010 20 231 3.2 16.1 0.00 0.00 0.00 36 1009.7
20260507175508 21 300 4.8 16.1 0.00 0.00 0.00 38 1009.7
20260507175006 21 352 4.8 19.3 0.00 0.00 0.00 42 1009.8
20260507174510 20 279 8.0 19.3 0.00 0.00 0.00 39 1009.8
20260507174004 20 352 6.4 14.5 0.00 0.00 0.00 34 1009.9
20260507173505 20 143 3.2 12.9 0.00 0.00 0.00 36 1009.9
20260507173033 20 82 3.2 14.5 0.00 0.00 0.00 38 1009.9
20260507172506 19 261 3.2 16.1 0.00 0.00 0.00 38 1010.1
20260507172006 19 336 6.4 16.1 0.00 0.00 0.00 38 1010.1
20260507171519 19 294 4.8 14.5 0.00 0.00 0.00 37 1010.2
20260507171005 20 279 1.6 12.9 0.00 0.00 0.00 42 1010.2
20260507170507 19 266 3.2 12.9 0.00 0.00 0.00 43 1010.2
20260507170017 19 351 3.2 12.9 0.00 0.00 0.00 41 1010.4
20260507165505 19 122 3.2 19.3 0.00 0.00 0.00 37 1010.4
20260507165006 18 44 4.8 19.3 0.00 0.00 0.00 42 1010.6
20260507164515 18 229 3.2 16.1 0.00 0.00 0.00 40 1010.6
20260507164007 18 247 4.8 16.1 0.00 0.00 0.00 38 1010.7
20260507163507 18 276 4.8 14.5 0.00 0.00 0.00 38 1010.7
20260507163012 18 281 3.2 14.5 0.00 0.00 0.00 39 1010.9
20260507162508 18 318 1.6 8.0 0.00 0.00 0.00 44 1010.8
20260507162006 18 38 0.0 11.3 0.00 0.00 0.00 46 1010.9
20260507161519 17 195 3.2 14.5 0.00 0.00 0.00 45 1010.9
20260507161006 17 212 3.2 14.5 0.00 0.00 0.00 42 1011.0
20260507160506 17 223 3.2 12.9 0.00 0.00 0.00 46 1011.0
20260507160024 17 217 1.6 8.0 0.00 0.00 0.00 45 1011.1
20260507155508 17 305 0.0 8.0 0.00 0.00 0.00 47 1011.2
20260507155009 16 232 3.2 9.7 0.00 0.00 0.00 49 1011.3
20260507154524 16 276 3.2 12.9 0.00 0.00 0.00 52 1011.3
20260507154007 16 281 3.2 12.9 0.00 0.00 0.00 51 1011.4
20260507153504 16 254 0.0 8.0 0.00 0.00 0.00 53 1011.4
20260507153014 16 333 3.2 12.9 0.00 0.00 0.00 53 1011.5
20260507152508 15 263 1.6 12.9 0.00 0.00 0.00 53 1011.5
20260507152006 15 259 1.6 9.7 0.00 0.00 0.00 54 1011.6
20260507151519 15 254 1.6 11.3 0.00 0.00 0.00 58 1011.5
20260507151004 15 281 3.2 11.3 0.00 0.00 0.00 55 1011.6
20260507150509 15 324 1.6 14.5 0.00 0.00 0.00 58 1011.6
20260507150019 14 306 4.8 17.7 0.00 0.00 0.00 57 1011.6
20260507145509 14 260 4.8 17.7 0.00 0.00 0.00 56 1011.7
20260507145007 14 301 3.2 16.1 0.00 0.00 0.00 57 1011.8
20260507144518 14 219 3.2 12.9 0.00 0.00 0.00 59 1011.8
20260507144010 13 319 3.2 11.3 0.00 0.00 0.00 58 1011.8
20260507143505 13 303 3.2 12.9 0.00 0.00 0.00 59 1011.8
20260507143027 12 234 3.2 12.9 0.00 0.00 0.00 60 1011.8
20260507142507 12 243 1.6 9.7 0.00 0.00 0.00 63 1011.9
20260507142012 12 327 1.6 12.9 0.00 0.00 0.00 64 1011.9
20260507141517 12 276 3.2 14.5 0.00 0.00 0.00 63 1012.0
20260507141008 12 63 3.2 14.5 0.00 0.00 0.00 65 1012.0
20260507140507 12 257 0.0 12.9 0.00 0.00 0.00 68 1012.1
20260507140022 12 306 1.6 12.9 0.00 0.00 0.00 66 1012.2
20260507135506 11 305 1.6 11.3 0.00 0.00 0.00 66 1012.2
20260507135005 11 321 0.0 9.7 0.00 0.00 0.00 68 1012.2
20260507134527 11 298 0.0 9.7 0.00 0.00 0.00 69 1012.2
20260507134010 10 263 3.2 12.9 0.00 0.00 0.00 69 1012.2
20260507133506 10 244 3.2 12.9 0.00 0.00 0.00 70 1012.2
20260507133022 10 278 3.2 11.3 0.00 0.00 0.00 71 1012.2
20260507132505 10 127 0.0 12.9 0.00 0.00 0.00 73 1012.1
20260507132012 10 194 1.6 14.5 0.00 0.00 0.00 74 1012.1
20260507131504 9 302 4.8 16.1 0.00 0.00 0.00 74 1012.2
20260507131004 9 336 3.2 16.1 0.00 0.00 0.00 76 1012.3
20260507130508 8 236 4.8 11.3 0.00 0.00 0.00 77 1012.4
20260507130017 8 239 1.6 11.3 0.00 0.00 0.00 78 1012.4
20260507125507 8 300 3.2 12.9 0.00 0.00 0.00 79 1012.5
20260507125004 8 226 1.6 12.9 0.00 0.00 0.00 81 1012.5
20260507124508 8 205 1.6 12.9 0.00 0.00 0.00 80 1012.4
20260507124003 8 5 3.2 12.9 0.00 0.00 0.00 79 1012.5
20260507123503 8 228 3.2 14.5 0.00 0.00 0.00 79 1012.5
20260507123009 8 217 0.0 14.5 0.00 0.00 0.00 79 1012.5
20260507122503 8 283 0.0 11.3 0.00 0.00 0.00 77 1012.5
20260507122008 8 304 1.6 11.3 0.00 0.00 0.00 75 1012.6
20260507121510 8 245 0.0 11.3 0.00 0.00 0.00 75 1012.6
20260507121004 7 213 0.0 14.5 0.00 0.00 0.00 76 1012.6
20260507120508 7 265 1.6 14.5 0.00 0.00 0.00 76 1012.6
20260507120006 7 246 3.2 14.5 0.00 0.00 0.00 77 1012.5
20260507115505 7 297 1.6 6.4 0.00 0.00 0.00 77 1012.5
20260507115010 7 251 1.6 11.3 0.00 0.00 0.00 77 1012.5
20260507114507 7 277 3.2 14.5 0.00 0.00 0.00 76 1012.5
20260507114003 7 303 0.0 14.5 0.00 0.00 0.00 76 1012.5
20260507113504 7 50 0.0 11.3 0.00 0.00 0.00 76 1012.5
20260507113012 7 273 3.2 11.3 0.00 0.00 0.00 76 1012.5
20260507112508 7 285 1.6 12.9 0.00 0.00 0.00 76 1012.5
20260507112004 7 274 3.2 12.9 0.00 0.00 0.00 76 1012.5
20260507111509 7 128 0.0 11.3 0.00 0.00 0.00 76 1012.5
20260507111008 7 238 1.6 11.3 0.00 0.00 0.00 75 1012.5
20260507110503 7 344 1.6 11.3 0.00 0.00 0.00 75 1012.5
20260507110015 7 333 3.2 11.3 0.00 0.00 0.00 75 1012.5
20260507105504 7 252 3.2 11.3 0.00 0.00 0.00 75 1012.5
20260507105004 7 260 1.6 11.3 0.00 0.00 0.00 75 1012.5
20260507104510 7 207 3.2 12.9 0.00 0.00 0.00 75 1012.4
20260507104006 7 257 4.8 12.9 0.00 0.00 0.00 75 1012.5
20260507103508 7 276 1.6 11.3 0.00 0.00 0.00 75 1012.5
20260507103007 7 308 3.2 12.9 0.00 0.00 0.00 75 1012.4
20260507102504 7 306 3.2 12.9 0.00 0.00 0.00 75 1012.3
20260507102008 7 271 1.6 11.3 0.00 0.00 0.00 75 1012.5
20260507101507 7 30 0.0 9.7 0.00 0.00 0.00 75 1012.4
20260507101004 7 218 1.6 9.7 0.00 0.00 0.00 75 1012.5
20260507100506 7 59 0.0 4.8 0.00 0.00 0.00 75 1012.5
20260507100017 7 197 0.0 4.8 0.00 0.00 0.00 74 1012.6
20260507095503 7 179 0.0 8.0 0.00 0.00 0.00 74 1012.7
20260507095011 7 29 1.6 8.0 0.00 0.00 0.00 74 1012.7
20260507094512 7 231 0.0 3.2 0.00 0.00 0.00 73 1012.6
20260507094007 7 89 0.0 4.8 0.00 0.00 0.00 73 1012.8
20260507093505 7 294 0.0 8.0 0.00 0.00 0.00 72 1012.8
20260507093007 7 87 0.0 9.7 0.00 0.00 0.00 72 1012.9
20260507092507 7 249 1.6 9.7 0.00 0.00 0.00 72 1012.9
20260507092009 7 276 1.6 6.4 0.00 0.00 0.00 72 1012.9
20260507091514 7 279 0.0 14.5 0.00 0.00 0.00 71 1012.9
20260507091014 7 167 3.2 14.5 0.00 0.00 0.00 71 1013.0
20260507090504 8 344 1.6 14.5 0.00 0.00 0.00 70 1013.1
20260507090016 7 251 1.6 14.5 0.00 0.00 0.00 70 1013.1
20260507085503 7 246 1.6 6.4 0.00 0.00 0.00 70 1013.2
20260507085007 8 289 1.6 11.3 0.00 0.00 0.00 70 1013.3
20260507084521 8 111 0.0 11.3 0.00 0.00 0.00 69 1013.3
20260507084004 8 158 0.0 11.3 0.00 0.00 0.00 69 1013.4
20260507083507 8 239 3.2 11.3 0.00 0.00 0.00 68 1013.4
20260507083020 8 265 1.6 11.3 0.00 0.00 0.00 69 1013.5
20260507082503 7 107 0.0 11.3 0.00 0.00 0.00 68 1013.5
20260507082010 7 266 0.0 11.3 0.00 0.00 0.00 68 1013.6
20260507081522 8 28 1.6 9.7 0.00 0.00 0.00 67 1013.6
20260507081007 7 346 3.2 9.7 0.00 0.00 0.00 66 1013.7
20260507080506 7 236 0.0 6.4 0.00 0.00 0.00 66 1013.7
20260507080016 7 207 0.0 6.4 0.00 0.00 0.00 65 1013.9
20260507075508 7 218 0.0 4.8 0.00 0.00 0.00 65 1013.9
20260507075004 7 186 0.0 6.4 0.00 0.00 0.00 65 1014.0
20260507074512 7 265 0.0 12.9 0.00 0.00 0.00 64 1014.0
20260507074004 7 285 1.6 12.9 0.00 0.00 0.00 64 1014.0
20260507073508 7 225 0.0 4.8 0.00 0.00 0.00 63 1014.1
20260507073016 7 277 1.6 4.8 0.00 0.00 0.00 63 1014.1
20260507072507 7 251 0.0 6.4 0.00 0.00 0.00 62 1014.2
20260507072008 7 248 0.0 6.4 0.00 0.00 0.00 62 1014.3
20260507071522 7 274 0.0 1.6 0.00 0.00 0.00 61 1014.3
20260507071008 7 195 0.0 4.8 0.00 0.00 0.00 60 1014.3
20260507070504 7 207 0.0 4.8 0.00 0.00 0.00 59 1014.4
20260507070026 7 184 0.0 3.2 0.00 0.00 0.00 60 1014.4